Weather History for Newport, RI

Change the Weather History Date:

Wednesday, February 12, 2014

  Actual Average Record
Temperature  
Mean Temperature 16 °F -  
Max Temperature 24 °F 38 °F 53 °F (1966)
Min Temperature 7 °F 21 °F -2 °F (1979)
Degree Days  
Heating Degree Days 50    
Moisture  
Dew Point 7 °F    
Average Humidity 63    
Maximum Humidity 78    
Minimum Humidity 52    
Precipitation  
Precipitation 0.00 in - - ()
Sea Level Pressure  
Sea Level Pressure 30.48 in    
Wind  
Wind Speed 9 mph (North)    
Max Wind Speed 15 mph    
Max Gust Speed 23 mph    
Visibility 10 miles    
Events      
Averages and records for this station are not official NWS values.
T = Trace of Precipitation, MM = Missing Value Source: NWS Daily Summary

Daily Weather History Graph

Daily Weather History Graph

Search for Another Location

Airport:

Trip Planner

Search our weather history database for the weather conditions in past years. The results will help you decide how hot, cold, wet, or windy it might be!

Date:

Astronomy

Feb. 12, 2014 Rise Set
Actual Time 6:44 AM EST 5:15 PM EST
Civil Twilight 6:15 AM EST 5:43 PM EST
Nautical Twilight 5:43 AM EST 6:16 PM EST
Astronomical Twilight 5:10 AM EST 6:48 PM EST
Moon 3:25 PM EST (2/12) 4:59 AM EST (2/12)
Length of Visible Light 11h 27m
Length of Day
10h 30m
Waxing Gibbous, 95% of the Moon is Illuminated
Feb 12
Waxing Gibbous
Feb 14
Full
Feb 22
Last Quarter
Mar 1
New
Mar 8
First Quarter

Hourly Weather History & Observations

Time (EST) Temp. Windchill Dew Point Humidity Pressure Visibility Wind Dir Wind Speed Gust Speed Precip Events Conditions
12:53 AM 16.0 °F 1.7 °F 3.0 °F 57% 30.42 in 10.0 mi NNW 13.8 mph 21.9 mph N/A   Clear
1:53 AM 15.1 °F 0.5 °F 1.9 °F 56% 30.43 in 10.0 mi NNW 13.8 mph 21.9 mph N/A   Clear
2:53 AM 12.0 °F -2.0 °F 1.0 °F 61% 30.44 in 10.0 mi North 11.5 mph - N/A   Clear
3:53 AM 12.9 °F -2.8 °F 1.0 °F 59% 30.45 in 10.0 mi North 15.0 mph 20.7 mph N/A   Clear
4:53 AM 10.9 °F -5.4 °F -2.9 °F 54% 30.47 in 10.0 mi North 15.0 mph 23.0 mph N/A   Clear
5:53 AM 9.0 °F -2.2 °F -2.0 °F 61% 30.51 in 10.0 mi North 6.9 mph - N/A   Clear
6:53 AM 7.0 °F -5.7 °F -4.0 °F 61% 30.52 in 10.0 mi North 8.1 mph - N/A   Clear
7:53 AM 9.0 °F 0.6 °F -2.9 °F 59% 30.53 in 10.0 mi North 4.6 mph - N/A   Clear
8:53 AM 12.0 °F 1.5 °F -0.9 °F 56% 30.53 in 10.0 mi North 6.9 mph - N/A   Clear
9:53 AM 16.0 °F 7.4 °F 1.9 °F 54% 30.56 in 10.0 mi North 5.8 mph - N/A   Clear
10:53 AM 19.0 °F 9.0 °F 3.9 °F 52% 30.54 in 10.0 mi North 8.1 mph - N/A   Clear
11:53 AM 21.0 °F 13.4 °F 7.0 °F 55% 30.53 in 10.0 mi NW 5.8 mph - N/A   Clear
12:53 PM 21.9 °F 14.5 °F 7.0 °F 53% 30.53 in 10.0 mi NNW 5.8 mph - N/A   Clear
1:53 PM 21.9 °F 15.7 °F 9.0 °F 58% 30.52 in 10.0 mi West 4.6 mph - N/A   Clear
2:53 PM 23.0 °F - 10.0 °F 58% 30.50 in 10.0 mi Calm Calm - N/A   Clear
3:53 PM 24.1 °F - 10.9 °F 57% 30.48 in 10.0 mi Calm Calm - N/A   Clear
4:53 PM 23.0 °F - 12.0 °F 63% 30.48 in 10.0 mi Calm Calm - N/A   Clear
5:53 PM 19.9 °F - 12.0 °F 71% 30.49 in 10.0 mi Calm Calm - N/A   Clear
6:53 PM 19.0 °F - 10.9 °F 71% 30.46 in 10.0 mi Calm Calm - N/A   Clear
7:53 PM 18.0 °F - 12.0 °F 78% 30.46 in 10.0 mi Calm Calm - N/A   Scattered Clouds
8:34 PM 21.0 °F 16.2 °F 15.1 °F 78% 30.44 in 10.0 mi ENE 3.5 mph - N/A   Mostly Cloudy
8:53 PM 21.0 °F 14.6 °F 14.0 °F 74% 30.45 in 10.0 mi ENE 4.6 mph - N/A   Mostly Cloudy
9:53 PM 21.9 °F 15.7 °F 15.1 °F 75% 30.43 in 10.0 mi East 4.6 mph - N/A   Mostly Cloudy
10:53 PM 23.0 °F 15.8 °F 16.0 °F 74% 30.42 in 10.0 mi ENE 5.8 mph - N/A   Overcast
11:53 PM 23.0 °F 13.9 °F 17.1 °F 78% 30.37 in 10.0 mi ENE 8.1 mph - N/A   Mostly Cloudy